Location: Cucq
(50.4773°N, 1.6202°E)
Time: 16:10:18
(UTC+00:00)

Okean 1-7 Rocket - Pass Details

Date: 07 August 2020
Orbit: 617 x 648 km, 82.5° (Epoch: 19 September)

Event Time Altitude Azimuth Distance (km) Brightness Sun altitude
Rises 02:24:28 0° 349° (N) 2,907 7.7 -16.0°
Reaches altitude 10° 02:26:42 10° 350° (N) 1,998 6.8 -15.8°
Maximum altitude 02:31:08 88° 75° (ENE) 630 3.5 -15.4°
Enters shadow 02:35:03 13° 170° (S) 1,788 5.5 -15.0°
